World > North America > United States > Missouri > Yates  

Yates, MO Hourly Weather Updates

Feedback E-mail the Weather

Quick WX

Yates, MO Weather Maps

°F °C°F °C
Yates Weather Map
UTC Time: 3/1/2024, 00:29
Your Time:

Yates, MO Regional Weather

Expires:202403010100;;177335
ASUS43 KEAX 010015
RWREAX

WEATHER ROUNDUP FOR EASTERN KANSAS AND NORTHWEST MISSOURI
NATIONAL WEATHER SERVICE KANSAS CITY/PLEASANT HILL MO
600 PM CST THU FEB 29 2024


MOZ001>008-011>017-020>025-030>033-038>040-044>046-053-054-010100-
...NORTHERN AND CENTRAL MISSOURI...
  
CITY           SKY/WX    TMP DP  RH WIND       PRES   REMARKS
ST. JOSEPH     PTCLDY    53  10  18 S23G32    30.11F                  
6HR MIN TEMP:  52; 6HR MAX TEMP:  59;                                

MOSBY          PTCLDY    52   9  17 S8        30.16F                  
HARRISONVILLE  PTCLDY    52  12  20 SW7       30.20F                  
WHITEMAN AFB   MOCLDY    48  12  23 S9        30.17F                  
6HR MIN TEMP:  47; 6HR MAX TEMP:  57;                                

CLINTON        PTCLDY    50  10  20 S7        30.20F                  
SEDALIA        PTCLDY    49   9  19 S9        30.21F                  
6HR MIN TEMP:  49; 6HR MAX TEMP:  56;                                

MARSHALL       PTCLDY    50  14  23 S7        30.20F                  
CHILLICOTHE      N/A     49  17  28 SE6       30.17F                  
6HR MIN TEMP:  48; 6HR MAX TEMP:  56;                                

MOBERLY        PTCLDY    50  10  20 S9        30.21S                  
KIRKSVILLE     PTCLDY    45  15  30 S10       30.19F                  
6HR MIN TEMP:  45; 6HR MAX TEMP:  53;                                


$$


SKY/WX - Weather  TMP - Temperature  DP - Dew Point  RH - Humidity
WIND - Wind Direction/Speed PRES - Barometric Pressure VSB - Visibility
WCI - Wind Chill Index E13G22 Wind - East Wind 13 mph/Gusts of 22 mph

Trending Headlines

Trending Entertainment Headlines

Yates Radar Loop

Use the map search tool if you want to place a location marker on the radar map...

Yates Quick Facts

National Two Day Weather Forecast


E-mail the Yates Weather Forecast

Voice your opinion or tell us about page issues...